Location: Krakow
(50.0830°N, 19.9170°E)
Time: 19:49:15
(UTC+01:00)

Vanguard 1 Rocket - Pass Details

Date: 12 December 2023
Orbit: 653 x 4219 km, 34.3° (Epoch: 29 February)

Event Time Altitude Azimuth Distance (km) Brightness Sun altitude
Rises 22:35:56 0° 166° (SSE) 8,041 - -60.7°
Reaches altitude 10° 22:49:51 10° 137° (SE) 7,412 - -61.7°
Maximum altitude 22:54:46 11° 126° (SE) 7,327 - -61.9°
Drops below altitude 10° 22:59:38 10° 115° (ESE) 7,327 - -62.2°
Exits shadow 23:04:04 - 105° (ESE) 7,407 11.8 -62.4°
Sets 23:12:33 0° 87° (E) 7,781 12.1 -62.7°
